Starlink 30116

operational
NORAD ID: 57465 Int'l Des: 2023-107 Owner: SPXS Country: US Constellation: starlink
LEOCIRCULAR

About Starlink 30116

Description loading...

Live Position

Loading 3D Globe...

Upcoming Passes

Altitude History

Altitude vs Time

uPlot chart will show altitude changes over time

Two-Line Element Set

1 57465U 23107J 26102.48147356 -.00000611 00000-0 -12678-4 0 9997
2 57465 43.0023 145.3866 0001025 268.6060 91.4674 15.27578532150316
Epoch: Apr 12, 2026 • Age: 8 hours

Current Status

Altitude 483.4 km
Velocity 7.63 km/s
Sub-Earth Point 24.96°N, 152.3°E
Launch Date Jul 28, 2023
Age 2.7 years
Type internet

Technical Details

Classification Payload
Mass 730.00 kg
Dry Mass 700.00 kg
Total Mass 730.00 kg
Length 0.30 m
Diameter 4.10 m
Span 29.00 m
Shape Box + pan
Manufacturer SPXS
Bus Type Starlink V2M
Phase Status In Orbit
Owner/State SPXS/US

Large Constellations

Loading constellations...